Location: Ciserano
(45.5833°N, 9.6000°E)
Time: 08:04:36
(UTC+00:00)

Cosmos 1295 Rocket - Pass Details

Date: 20 April 2021
Orbit: 944 x 993 km, 82.9° (Epoch: 13 May)

Event Time Altitude Azimuth Distance (km) Brightness Sun altitude
Rises 22:35:49 0° 360° (N) 3,676 8.6 -31.7°
Reaches altitude 10° 22:38:48 10° 13° (NNE) 2,733 7.6 -31.8°
Maximum altitude 22:43:58 26° 69° (ENE) 1,816 5.9 -32.0°
Enters shadow 22:44:16 26° 73° (ENE) 1,820 5.9 -32.0°
